Location: Unspecified
(0.0000°N, 1.0000°E)
Time: 04:35:17
(UTC+02:00)

Daily predictions for brighter satellites

Satellite Brightness Start Highest point End
(mag) Time Altitude Azimuth Time Altitude Azimuth Time Altitude Azimuth
Cosmos 2369 Rocket 4.5 05:28:17 10° NNE 05:32:27 21° ENE 05:36:38 10° ESE
Maqsat-B 4.1 05:34:34 62° SE 05:34:34 62° SE 05:49:27 10° E
ADEOS Rocket 3.4 05:45:18 10° NNE 05:53:04 88° ESE 05:55:49 44° S
SWIFT 4.4 05:54:58 24° ESE 05:54:58 24° ESE 05:57:06 10° E
CZ-3 Stage 3 3.7 05:41:17 10° NW 05:55:01 39° NNE 05:58:46 10° E
Feng Yun 1-1 Rocket 4.4 05:52:24 10° NNE 05:56:58 65° NNE 05:56:58 65° NNE
OAO 3 Rocket 4.3 06:01:53 36° SE 06:01:53 36° SE 06:06:01 10° ENE
Ariane 42P Rocket 3.5 06:06:45 39° ESE 06:06:45 39° ESE 06:11:26 10° E
Cosmos 407 Rocket 3.4 06:06:55 77° NNE 06:06:55 77° NNE 06:11:40 10° NNE
OAO 2 Rocket 3.5 06:07:32 70° SSE 06:07:32 70° SSE 06:12:15 10° SE
ARIANE 5 R/B 3.4 06:06:50 43° W 06:10:48 82° S 06:14:45 10° E
GPS 2-15 Rocket1 3.1 06:13:36 83° ESE 06:13:36 83° ESE 06:18:22 10° ESE
CZ-3A R/B 4.1 04:46:03 10° WSW 06:13:32 88° NNW 06:19:52 10° ENE
Okean 1-7 3.6 06:15:03 48° N 06:15:03 48° N 06:18:09 10° N
MOS 1 Rocket 4.2 06:10:04 10° NNE 06:14:09 43° ESE 06:18:20 10° S
H-10 deb 2.3 06:14:31 66° WNW 06:15:11 85° N 06:18:10 10° E
Meteor 1-31 Rocket 3.3 06:11:58 10° NNE 06:15:12 56° ENE 06:15:12 56° ENE
ARIANE 5 R/B 4.0 06:22:28 30° WNW 06:26:38 56° N 06:30:31 10° ENE
Cosmos 1302 Rocket 4.0 06:21:57 10° N 06:27:09 77° ENE 06:32:19 10° SSE
COBE Rocket 4.3 06:26:05 10° NNE 06:31:07 64° ESE 06:36:01 10° S
Thor Agena Rocket 3.3 06:29:31 10° S 06:34:34 80° WSW 06:39:39 10° NNW
ATLAS CENTAUR R/B 3.5 06:32:15 10° NNE 06:35:17 24° ENE 06:38:13 10° ESE
RUBIN 8/PSLV 4.4 06:31:01 10° N 06:35:21 78° W 06:38:17 21° SSW
Cosmos 1140 Rocket 4.0 06:33:02 10° S 06:38:05 58° ESE 06:43:06 10° NNE
ADEOS II 2.9 06:35:04 10° NNW 06:39:04 30° WNW 06:39:04 30° WNW
Cosmos 1782 4.5 06:36:29 10° SSE 06:40:09 35° E 06:43:48 10° NNE
COSMOS 2487 4.3 06:43:46 18° NNW 06:43:46 18° NNW 06:45:05 10° NNW
Cosmos 1825 2.0 06:38:48 10° N 06:42:34 89° W 06:46:22 10° S
Cosmos 1782 Rocket 4.3 06:39:18 10° N 06:43:31 53° E 06:47:45 10° SSE
SeaSat 1 2.7 06:40:19 10° S 06:45:00 44° WSW 06:49:39 10° NW
SEDSat Delta rocket 2.8 06:47:34 36° WSW 06:49:09 73° NNW 06:53:39 10° NE
CZ-3 R/B 4.1 06:32:04 10° NW 06:49:41 28° N 06:55:36 10° ENE
NOAA 6 4.1 06:44:53 10° N 06:49:55 56° WNW 06:55:00 10° SSW
DELTA-4 R/B 3.5 06:49:55 22° NW 06:51:12 28° NNW 06:54:02 10° NE
CSL-04 Rocket 3.9 06:47:17 10° NNE 06:52:34 69° ESE 06:57:49 10° S
Cosmos 1408 2.7 06:51:46 10° NNW 06:55:25 52° W 06:59:06 10° S
Sea Lan Dem Rocket 4.3 06:34:56 21° W 06:56:05 88° S 07:01:35 10° E
Ariane H10 3.2 06:57:05 11° N 06:57:05 11° N 06:57:24 10° NNE
Ariane Rocket 3.0 06:55:07 10° N 07:00:07 63° WNW 07:05:10 10° SSW
Gbstr 26 Del rocket 4.1 06:56:55 12° SW 07:02:48 83° NW 07:10:23 10° NNE
Cosmos 1908 Rocket 4.1 07:00:31 10° NNW 07:04:27 34° W 07:08:24 10° SSW
Cosmos 2181 Rocket 4.2 06:58:32 10° SSW 07:04:42 50° W 07:10:53 10° NNW
Cosmos 614 Rocket 4.1 07:01:48 10° S 07:06:59 77° ESE 07:12:06 10° NNE
Ariane H10 2.0 07:07:21 20° WSW 07:09:03 50° S 07:11:23 10° E
BLOCK DM-SL R/B 3.3 06:47:43 17° W 07:09:29 88° N 07:13:56 10° E
Fermi 4.0 07:09:07 16° W 07:12:12 53° SSW 07:16:15 10° SE
Cosmos 839 Rocket 4.4 07:07:15 10° NW 07:13:05 39° WSW 07:18:46 10° S
Cosmos 2082 Rocket 2.2 07:08:00 10° SSW 07:13:43 90° ESE 07:19:26 10° NNE
Cosmos 2369 Rocket 3.1 07:11:34 10° NW 07:16:10 26° WSW 07:20:49 10° SSW
Meteor 2-6 Rocket 4.3 07:11:06 10° S 07:17:01 82° W 07:22:59 10° N
ARIANE 5 R/B 2.9 07:18:48 10° NW 07:20:32 23° N 07:23:24 10° ENE
Timation 2 Rocket 4.2 07:14:42 10° SSW 07:21:05 51° WNW 07:27:11 10° N
USA 229 DEB 3.7 07:16:26 10° SSW 07:23:19 72° WNW 07:30:11 10° NNE
USA 229 3.7 07:16:32 10° SSW 07:23:26 73° WNW 07:30:17 10° NNE
Cosmos 1992 Rocket 4.1 07:21:25 10° N 07:26:38 83° ENE 07:31:53 10° SSE
Cosmos 1606 2.7 07:24:29 10° S 07:28:23 72° W 07:32:17 10° N
SPOT 3 Rocket 4.2 07:23:42 10° NNE 07:28:47 60° ESE 07:33:55 10° S
CSL-04 Debris 4.3 07:23:35 10° N 07:28:56 56° WNW 07:34:18 10° SSW
Cosmos 1850 Rocket 4.2 07:24:17 10° SSW 07:29:17 50° WNW 07:34:20 10° N
SKYMED 2 4.3 07:26:07 10° SSE 07:30:23 59° ENE 07:34:39 10° N
SWIFT 2.6 07:31:01 10° WSW 07:35:14 59° NNW 07:39:24 10° ENE
IRS-1A Rocket 4.5 07:30:23 10° N 07:36:09 58° WNW 07:41:52 10° SSW
Cosmos 1833 Rocket 2.7 07:30:57 10° SSW 07:36:32 68° WNW 07:42:04 10° N
